Weather History for Brier Island, NS

Change the Weather History Date:

Thursday, January 17, 2013

  Actual Average Record
Temperature  
Mean Temperature 34 °F -  
Max Temperature 41 °F - - ()
Min Temperature 24 °F - - ()
Degree Days  
Heating Degree Days 32    
Moisture  
Dew Point 30 °F    
Average Humidity 79    
Maximum Humidity 100    
Minimum Humidity 53    
Precipitation  
Precipitation 0.00 in - - ()
Sea Level Pressure  
Sea Level Pressure 29.87 in    
Wind  
Wind Speed 19 mph ()    
Max Wind Speed 30 mph    
Max Gust Speed 37 mph    
T = Trace of Precipitation, MM = Missing Value Source: Averaged Metar Reports

Daily Weather History Graph

Daily Weather History Graph

Search for Another Location

Airport:

Trip Planner

Search our weather history database for the weather conditions in past years. The results will help you decide how hot, cold, wet, or windy it might be!

Date:

Astronomy

Jan. 17, 2013 Rise Set
Actual Time 7:56 AM AST 5:15 PM AST
Civil Twilight 7:24 AM AST 5:47 PM AST
Nautical Twilight 6:48 AM AST 6:22 PM AST
Astronomical Twilight 6:14 AM AST 6:57 PM AST
Moon 10:45 AM AST (1/17) No Moon Set
Length of Visible Light 10h 22m
Length of Day
9h 18m
Waxing Crescent, 37% of the Moon is Illuminated
Jan 17
Waxing Crescent
Jan 18
First Quarter
Jan 27
Full
Feb 3
Last Quarter
Feb 10
New

Hourly Weather History & Observations

Time (AST) Temp. Windchill Dew Point Humidity Pressure Visibility Wind Dir Wind Speed Gust Speed Precip Events Conditions
12:00 AM 31.6 °F 18.1 °F 31.1 °F 98% 29.81 in - East 25.3 mph - N/A   Unknown
1:00 AM 31.3 °F 18.2 °F 31.5 °F 100% 29.81 in - East 23.0 mph - N/A   Unknown
2:00 AM 33 °F - 32 °F 95% 29.81 in - ESE 17.3 mph - -  
2:00 AM 33.3 °F 22.5 °F 31.8 °F 94% 29.81 in - ESE 17.3 mph - N/A   Unknown
3:00 AM 33.8 °F 23.5 °F 33.1 °F 97% 29.81 in - SE 16.1 mph - N/A   Unknown
4:00 AM 34.5 °F 24.8 °F 34.0 °F 98% 29.79 in - SE 15.0 mph - N/A   Unknown
5:00 AM 35.2 °F 25.8 °F 34.7 °F 98% 29.79 in - SE 15.0 mph - N/A   Unknown
6:00 AM 36.1 °F 26.5 °F 35.6 °F 98% 29.76 in - SE 16.1 mph - N/A   Unknown
7:00 AM 37.4 °F 30.3 °F 37.2 °F 99% 29.75 in - South 10.4 mph 19.6 mph N/A   Unknown
8:00 AM 39 °F - 36 °F 83% 29.76 in - WSW 19.6 mph - -  
8:00 AM 38.7 °F 28.8 °F 35.6 °F 89% 29.76 in - WSW 19.6 mph 28.8 mph N/A   Unknown
9:00 AM 38.5 °F 27.5 °F 33.8 °F 83% 29.79 in - WSW 24.2 mph 31.1 mph N/A   Unknown
10:00 AM 38.7 °F 29.5 °F 33.4 °F 81% 29.82 in - WSW 17.3 mph 24.2 mph N/A   Unknown
11:00 AM 38.1 °F 28.4 °F 31.6 °F 77% 29.83 in - WSW 18.4 mph - N/A   Unknown
12:00 PM 40.5 °F 30.2 °F 31.5 °F 70% 29.83 in - WSW 24.2 mph 29.9 mph N/A   Unknown
1:00 PM 41.0 °F 30.5 °F 31.8 °F 70% 29.83 in - West 26.5 mph 33.4 mph N/A   Unknown
2:00 PM 41 °F - 30 °F 55% 29.83 in - West 23.0 mph - -  
3:00 PM 41.7 °F 31.4 °F 30.0 °F 63% 29.86 in - West 26.5 mph - N/A   Unknown
4:00 PM 40.5 °F 29.5 °F 30.6 °F 68% 29.89 in - West 27.6 mph - N/A   Unknown
5:00 PM 39.6 °F 28.1 °F 30.2 °F 69% 29.93 in - West 28.8 mph - N/A   Unknown
6:00 PM 38.5 °F 27.1 °F 29.7 °F 71% 29.96 in - West 26.5 mph 32.2 mph N/A   Unknown
7:00 PM 36.3 °F 23.5 °F 27.1 °F 69% 29.99 in - WNW 29.9 mph 36.8 mph N/A   Unknown
8:00 PM 33 °F - 24 °F 58% 30.04 in - NW 26.5 mph - -  
8:00 PM 32.9 °F 19.6 °F 23.7 °F 69% 30.04 in - NW 26.5 mph 32.2 mph N/A   Unknown
9:00 PM 29.1 °F 13.7 °F 14.0 °F 53% 30.05 in - WNW 29.9 mph 36.8 mph N/A   Unknown
10:00 PM 26.6 °F 11.1 °F 11.7 °F 53% 30.10 in - NW 26.5 mph 32.2 mph N/A   Unknown
11:00 PM 24.4 °F 10.2 °F 17.1 °F 73% 30.10 in - NNW 19.6 mph - N/A   Unknown